This demonstration page uses our WeatherBlox Daily Observations layout. Learn more.

Left ArrowRight Arrow

Hourly Observations for June 26, 2018

Temp ( °F °C ) Dew Point ( °F °C ) Humidity (%) Winds ( mph kmh ) Pressure ( in mb ) Visibility ( mi km ) Precip ( " mm )
12:57 am 00:57 Clear 63 17.2 61 16.1 93 93 W 8 13 29.87 1011 10 16 0.00 0.00
1:57 am 01:57 Clear 64 17.8 61 16.1 90 90 W 9 15 29.86 1011 10 16 0.00 0.00
2:57 am 02:57 Clear 64 17.8 61 16.1 90 90 W 9 15 29.86 1011 10 16 0.00 0.00
3:57 am 03:57 Clear 63 17.2 60 15.6 90 90 W 9 15 29.85 1011 10 16 0.00 0.00
4:57 am 04:57 Clear 62 16.7 59 15 90 90 WNW 9 15 29.85 1011 10 16 0.00 0.00
5:57 am 05:57 Clear 62 16.7 59 15 90 90 NW 9 15 29.87 1011 10 16 0.00 0.00
6:57 am 06:57 Sunny 62 16.7 59 15 90 90 NW 7 11 29.87 1012 10 16 0.00 0.00
7:57 am 07:57 Sunny 64 17.8 60 15.6 87 87 NW 8 13 29.88 1012 10 16 0.00 0.00
8:57 am 08:57 Sunny 67 19.4 61 16.1 81 81 WNW 8 13 29.88 1012 10 16 0.00 0.00
9:57 am 09:57 Sunny 71 21.7 62 16.7 73 73 WNW 6 9 29.86 1011 10 16 0.00 0.00
11:27 am 11:27 Partly Cloudy 77 25 63 17 61 61 NW 5 7 29.80 1009 10 16 0.00 0.00
11:36 am 11:36 Mostly Cloudy 75 24 63 17 65 65 NNE 8 13 29.80 1009 10 16 0.00 0.00
11:57 am 11:57 Cloudy 77 25 62 16.7 60 60 N 5 7 29.88 1012 10 16 0.00 0.00
12:57 pm 12:57 Mostly Cloudy 77 25 63 17.2 62 62 ENE 5 7 29.88 1012 10 16 0.00 0.00
1:57 pm 13:57 Mostly Cloudy 79 26.1 63 17.2 58 58 VRB 6 9 29.85 1011 10 16 0.00 0.00
2:57 pm 14:57 Mostly Cloudy 81 27.2 63 17.2 54 54 E 6 9 29.84 1011 10 16 0.00 0.00
3:57 pm 15:57 Mostly Cloudy 81 27.2 64 17.8 57 57 S 5 7 29.83 1010 10 16 0.00 0.00
4:57 pm 16:57 Mostly Cloudy 82 27.8 65 18.3 56 56 SSE 3 6 29.83 1010 10 16 0.00 0.00
5:57 pm 17:57 Mostly Cloudy 83 28.3 65 18.3 55 55 VRB 6 9 29.82 1010 10 16 0.01 0.25
6:57 pm 18:57 Mostly Cloudy 83 28.3 65 18.3 55 55 SSW 7 11 29.82 1010 10 16 0.00 0.00
7:57 pm 19:57 Cloudy 82 27.8 65 18.3 56 56 S 5 7 29.81 1010 10 16 0.00 0.00
8:57 pm 20:57 Cloudy 78 25.6 68 20 71 71 SE 5 7 29.81 1010 10 16 0.00 0.00
9:38 pm 21:38 Mostly Clear 75 24 66 19 74 74 E 3 6 29.77 1008 10 16 0.00 0.00
9:57 pm 21:57 Clear 74 23.3 67 19.4 79 79 ESE 9 15 29.80 1009 10 16 0.00 0.00
10:57 pm 22:57 Clear 71 21.7 67 19.4 87 87 SE 7 11 29.82 1010 10 16 0.00 0.00
11:57 pm 23:57 Clear 69 20.6 66 18.9 90 90 SE 6 9 29.84 1010 10 16 0.00 0.00

Powered by AerisWeather